www.pogodaiklimat.ru

Погода и климат >> Архив погоды >> Россия >> Астраханская область >> Астрахань


АРХИВ ПОГОДЫ в Астрахани

Время (UTC), дата Ветер
(напр.,м/с)
 
Видим.   Явления Облачность Т
(С)
Тd
(С)
f
(%)
Тe
(С)
Тes
(С)
Комфортность P
(гПа)
Po
(гПа)
Тmin
(С)
Tmax
(С)
R
(мм)
R24
(мм)
S
(см)
06 19.06 ЮЗ 1 10 км 3/3 1000 м
[Cu hum]
+30.4 +13.9 37 +32 +43 жарко 1010.1 1012.5
09 19.06 Ю 2 10 км 6/3 600 м
[Cb cap Ac trans Ci fib]
+34.1 +11.2 25 +34 +44 очень
жарко
1009.3 1011.7
12 19.06 СВ 4
{11}
10 км 8/6 600 м
[Cb cap Ac trans Ci fib]
+30.6 +12.6 33 +31 +34 жарко 1009.0 1011.4
15 19.06 В 3 10 км 6/4 600 м
[Cb calv Ac trans]
+31.5 +10.2 27 +31 +32 жарко 1008.7 1011.1 +35.0
18 19.06 ЮВ 2 10 км 9/9 600 м
[Cb calv]
+27.4 +15.1 47 +30 +30 жарко 1009.4 1011.8
21 19.06 Ю 1 10 км {ливн. осадки} 8/8 600 м
[Cb calv]
+25.7 +14.8 51 +28 +28 жарко 1009.1 1011.5
00 20.06 ЮЗ 1 10 км {ливн. осадки} 3/0
[Ac trans]
+22.6 +15.8 65 +27 +27 душно 1009.0 1011.4
03 20.06 СВ 1 10 км 8/3 600 м
[Cb calv Ac trans Ci fib]
+23.9 +16.6 64 +27 +29 жарко 1009.9 1012.3 +20.9 0.0
06 20.06 ЮВ 1 10 км 4/3 1000 м
[Cu hum Ac trans Ci fib]
+32.0 +10.1 26 +32 +41 жарко 1010.0 1012.4
09 20.06 СВ 2 10 км 4/1 600 м
[Cu hum Ac trans Ci fib]
+34.0 +9.3 22 +33 +47 жарко 1009.8 1012.1
12 20.06 СВ 2 10 км 8/4 600 м
[Cb cap Ac trans Ci fib]
+32.4 +11.6 28 +32 +37 жарко 1009.3 1011.7
15 20.06 В 2 10 км 6/6 600 м
[Cb cap]
+31.3 +11.9 30 +32 +32 жарко 1009.5 1011.9 +34.7
18 20.06 штиль 0 10 км 1/0
[Ac trans]
+24.4 +15.5 58 +27 +27 жарко 1010.6 1013.0
21 20.06 СЗ 2 10 км ясно +23.0 +17.1 69 +28 +28 душно 1011.0 1013.4
00 21.06 СВ 4 10 км 3/0
[Ci fib]
+25.6 +7.4 31 +26 +26 жарко 1011.3 1013.7
03 21.06 СВ 3 10 км ясно +25.3 +8.4 34 +26 +28 жарко 1012.5 1014.9 +22.3
06 21.06 СВ 4 10 км 1/0
[Ci fib]
+31.0 +8.8 25 +30 +39 жарко 1013.1 1015.5
09 21.06 С 3 10 км 4/1 1000 м
[Cu hum Ac trans]
+33.5 +7.5 20 +32 +43 жарко 1012.6 1015.0
12 21.06 СВ 4 10 км 6/1 1000 м
[Cu hum Ci fib]
+34.4 +5.2 16 +32 +38 жарко 1011.8 1014.2
15 21.06 С 3 10 км 8/1 1000 м
[Cu hum Ac trans Ci fib]
+33.6 +3.9 16 +31 +32 жарко 1011.6 1014.0 +34.6
18 21.06 ЮВ 1 10 км 6/0
[Ac trans Ci fib]
+27.0 +15.9 51 +30 +30 душно 1012.9 1015.3
21 21.06 штиль 0 10 км 3/0
[Ac trans]
+22.2 +16.9 72 +27 +27 душно 1013.0 1015.4
00 22.06 С 3 10 км 1/0
[Ac trans]
+26.2 +6.7 29 +26 +26 жарко 1013.1 1015.6
03 22.06 СВ 3 10 км 3/0
[Ac trans]
+26.6 +7.6 30 +26 +28 жарко 1013.9 1016.3 +21.3
06 22.06 С 3 10 км 1/0
[Ac trans]
+32.3 +9.5 25 +32 +42 жарко 1014.5 1016.9
09 22.06 СВ 3
{11}
10 км 3/1 1000 м
[Cu hum Ci fib]
+36.0 +4.3 14 +33 +47 жарко 1014.1 1016.4
12 22.06 В 3 10 км 4/3 1000 м
[Cu hum Ci fib]
+36.9 +5.0 14 +34 +41 очень
жарко
1013.2 1015.5
15 22.06 В 2 10 км 1/0
[Ci fib]
+35.0 +5.8 16 +32 +34 жарко 1013.2 1015.5 +37.1
18 22.06 СЗ 1 10 км 3/0
[Ac trans Ci fib]
+25.4 +11.7 42 +27 +27 жарко 1013.6 1016.0
21 22.06 С 2 10 км ясно +25.3 +12.0 43 +27 +27 жарко 1013.0 1015.4
00 23.06 СВ 3 10 км ясно +25.8 +7.3 31 +26 +26 жарко 1013.8 1016.2
03 23.06 СВ 4 10 км 3/0
[Ac trans Ci fib]
+26.3 +6.0 27 +26 +27 жарко 1014.8 1017.2 +24.4
06 23.06 СВ 5
{10}
10 км 3/0
[Ci fib]
+33.5 +6.9 19 +32 +38 жарко 1014.7 1017.1
09 23.06 С 5
{11}
10 км 4/0
[Ac trans Ci fib]
+36.6 +5.4 15 +34 +42 очень
жарко
1013.9 1016.3
12 23.06 СВ 4 10 км 6/3 1000 м
[Cu hum Ac trans Ci fib]
+37.7 +5.0 13 +35 +39 очень
жарко
1013.3 1015.6
15 23.06 ЮВ 3 10 км 3/0
[Ac trans]
+34.3 +12.3 26 +34 +35 очень
жарко
1013.0 1015.3 +38.4
18 23.06 ЮВ 1 10 км 3/0
[Ac trans]
+27.9 +13.9 42 +30 +30 жарко 1013.7 1016.1
21 23.06 штиль 0 10 км ясно +23.0 +15.4 62 +27 +27 душно 1013.4 1015.8
00 24.06 ЮВ 1 10 км ясно +23.9 +13.7 53 +26 +26 жарко 1013.1 1015.6
03 24.06 СВ 1 10 км 8/3 600 м
[Cb cap Ac trans Ci fib]
+26.3 +13.9 46 +28 +30 жарко 1013.3 1015.7 +21.2
06 24.06 В 3 10 км 8/3 1000 м
[Cu med, cong Ac trans Ci fib]
+36.0 +5.1 15 +33 +38 жарко 1013.6 1015.9
09 24.06 ЮВ 4 10 км 9/6 600 м
[Cb cap Ac trans Ci fib]
+35.5 +11.9 24 +35 +38 очень
жарко
1013.2 1015.6
12 24.06 В 2 10 км в посл. час ливневой дождь 9/8 600 м
[Cb cap Ac trans]
+34.6 +13.4 28 +35 +37 очень
жарко
1012.6 1015.0
15 24.06 В 2 10 км {ливн. осадки} 9/8 600 м
[Cb cap Ac trans]
+33.7 +13.8 30 +35 +35 очень
жарко
1011.8 1014.2 +38.2 0.0
18 24.06 СВ 1 10 км {ливн. осадки} 9/8 600 м
[Cb cap Ac trans]
+29.0 +16.4 47 +32 +32 душно 1012.6 1015.0
21 24.06 ЮВ 3 10 км в посл. час ливневой дождь 8/6 600 м
[Cb cap Ac trans]
+27.8 +15.4 47 +31 +31 душно 1012.2 1014.6
00 25.06 Ю 6-10
{16}
4000 м гроза, ливневой дождь 9/8 600 м
[Cb calv Ac trans]
+23.8 +17.9 70 +28 +28 душно 1012.9 1015.4
03 25.06 В 1
{12}
4000 м гроза, ливневой дождь 10/10 600 м
[Cb calv]
+24.3 +19.4 74 +29 +29 душно 1012.5 1014.9 +23.2 1
06 25.06 ЮВ 2
{12}
10 км слаб. ливневой дождь {гроза} 9/8 600 м
[Cb calv Ac trans Ci fib]
+27.1 +16.7 53 +31 +33 душно 1012.6 1015.0
09 25.06 ЮВ 4 10 км {ливн. осадки} 8/6 600 м
[Cb calv Ac trans]
+31.6 +12.8 32 +32 +36 жарко 1012.6 1014.9
12 25.06 ЮВ 3 10 км {ливн. осадки} 8/5 600 м
[Cb calv Ac trans Ci fib]
+33.4 +15.0 33 +35 +38 душно 1011.2 1013.5
15 25.06 В 2 10 км {гроза, ливн. осадки} 6/3 600 м
[Cb calv Ac trans Ci fib]
+30.1 +18.2 49 +35 +36 очень
душно
1011.3 1013.7 +34.8 0.5
18 25.06 СВ 2
{11}
10 км гроза без осадков {ливн. осадки} 6/6 600 м
[Cb calv]
+24.8 +15.6 57 +28 +28 жарко 1012.8 1015.2
21 25.06 СЗ 1 10 км {гроза} ясно +22.6 +15.7 65 +27 +27 душно 1013.3 1015.8
00 26.06 З 1 10 км {гроза} 3/0
[Ac trans]
+20.4 +17.4 83 +25 +25 комфорт 1013.5 1016.0
03 26.06 З 1 10 км 8/3 600 м
[Cb calv Ac trans]
+22.7 +17.8 74 +28 +29 душно 1014.9 1017.4 +19.5

 

Местоположение метеостанции Астрахань (Астраханская область, Россия): широта 46.28 долгота 47.98 высота над уровнем моря -21 м.

В архиве по умолчанию представлена погода в Астрахани за последнюю неделю. Архивные данные за месяц целиком и за предыдущие месяцы, начиная с января 2011 года, Вы можете получить, выбрав интересующий диапазон дат из раскрывающегося списка и нажав кнопку "Ввод!".


*Определитесь, кто Вы:
робот инопланетянин человек

Внимание! Время в таблицах - всемирное. Для получения местного времени необходимо прибавить поправку, которая равна 4 ч.

Смотрите также архив погоды в соседних городах и на ближайших метеорологических станциях:

Погода в Зеленге (Астраханская область, Россия) (50 км)
Погода в Досанге (Астраханская область, Россия) (71 км)
Погода в Лимане (Астраханская область, Россия) (79 км)
Погода в Ганюшкино (Атырауская область, Казахстан) (105 км)
Погода в Лагани (Калмыкия, Россия) (109 км)
Погода в Харабали (Астраханская область, Россия) (136 км)
Погода в Утте (Калмыкия, Россия) (151 км)
Погода в Юсте (Калмыкия, Россия) (158 км)
Погода в Исатай (Атырауская область, Казахстан) (170 км)
Погода в Артезиане (Калмыкия, Россия) (177 км)

Пояснения к столбцам:

Ветер - указаны скорость ветра в м/с - средняя за 10 мин, порывы в срок и между сроками (в фигурных скобках) и направление, откуда дует ветер: С - северный, СВ - северо-восточный, В - восточный, ЮВ - юго-восточный, Ю - южный, ЮЗ - юго-западный, З - западный, СЗ - северо-западный.
Видимость - горизонтальная дальность видимости в метрах или километрах. При видимости от 1 до 10 км при отсутствии осадков обычно наблюдается дымка, при ухудшении видимости до 1 км и менее - туман. В сухую погоду видимость может ухудшаться дымом, пылью или мглою.
Явления - указаны атмосферные явления, наблюдавшиеся в срок или в последний час перед сроком; фигурными скобками обозначены явления, наблюдавшиеся между сроками (за 1-3 часа до срока); квадратными скобками обозначены град или гололедные отложения с указанием их диаметра в мм.
Облачность - указаны через наклонную черту общая и нижняя облачность в баллах и высота нижней границы облаков в метрах; квадратными скобками обозначены формы облаков: Ci - перистые, Cs - перисто-слоистые, Cc - перисто-кучевые, Ac - высококучевые, As - высокослоистые, Sc - слоисто-кучевые, Ns - слоисто-дождевые, Cu - кучевые, Cb - кучево-дождевые. Подробнее классификацию облаков см. в Атласе облаков (PDF).
T - Температура воздуха - температура, измеренная на высоте 2 м над землей.
Td - Температура точки росы - температура, при понижении до которой содержащийся в воздухе водяной пар достигнет насыщения.
f - Относительная влажность воздуха - влажноcть воздуха, измеренная на высоте 2 м над землей.
Te - Эффективная температура - температура, которую ощущает одетый по сезону человек в тени. Характеристика душности погоды. При расчете учитывается влияние влажности воздуха и скорости ветра на теплоощущения человека.
Tes - Эффективная температура на солнце - температура, которую ощущает человек, с поправкой на солнечный нагрев. Характеристика знойности погоды. Зависит от высоты солнца над горизонтом, облачности и скорости ветра. Ночью, в пасмурную погоду, а также при ветре 12 м/с и более поправка равна нулю.
P - Атмосферное давление - приведенное к уровню моря атмосферное давление.
Po - Атмосферное давление - измеренное на уровне метеостанции атмосферное давление.
Tmin - Минимальная температура - минимум температуры воздуха на высоте 2 м над землей.
Tmax - Максимальная температура - максимум температуры воздуха на высоте 2 м над землей.
R - Количество осадков - Количество выпавших осадков за период времени, мм. При наведении курсора мыши на число - период времени, за который выпало указанное количество осадков.
R24 - Количество осадков - Количество выпавших осадков за 24 часа, мм.
S - Снежный покров - Высота снежного покрова, см. При наведении курсора мыши на число - состояние снежного покрова и степень покрытия местности в баллах.